Temperature
23 23 22 22 24 26 27 29 30 29 29 29 28 27 27 26 25 23 22 22 21 21 21 20 20 20 19 19 19 19 19 19 19 19 19 19 19 19 19 19 19 19 19 18 18 18 18 18 18
23 22 23 24 26 26 28 30 30 30 29 29 28 27 26 25 24 23 22 22 21 21 20 20 20 20 19 19 19 19 19 19 19 19 19 19 19 19 19 19 18 19 19 18 18 18 18 18 18
23 24 25 27 27 28 28 30 30 30 30 29 28 27 26 25 24 23 22 22 21 21 20 20 20 20 19 19 19 19 19 19 19 19 19 19 18 18 18 18 18 18 18 18 18 18 18 18 18
24 26 27 28 29 29 30 30 31 30 30 29 28 27 25 24 24 23 23 22 22 21 20 21 20 20 20 19 19 19 19 19 19 19 19 18 18 18 18 18 18 18 18 18 18 18 18 18 18
25 27 28 29 30 30 31 31 31 30 30 29 27 26 24 24 23 23 23 22 22 21 21 21 20 20 20 19 19 19 19 19 19 19 19 19 19 19 19 18 18 18 18 18 18 18 18 18 18
28 29 28 29 30 31 31 31 31 30 29 28 27 26 24 24 23 23 23 23 22 21 21 21 20 20 20 19 19 19 19 19 19 19 19 19 19 19 19 18 18 18 18 18 18 18 18 18 18
29 30 29 29 29 30 31 31 30 30 29 29 28 26 24 24 24 23 23 23 22 21 21 20 20 20 20 20 19 19 19 19 19 19 19 19 19 19 19 19 18 18 18 18 18 18 18 18 18
31 31 30 30 30 30 31 31 30 30 29 28 28 26 24 24 24 23 23 22 22 21 21 21 20 20 20 20 19 19 19 19 19 19 19 19 19 19 18 18 18 18 18 18 18 18 18 18 18
31 30 30 31 30 30 31 31 30 29 28 28 27 26 25 24 24 23 23 22 22 21 21 20 20 20 20 19 19 19 19 19 19 19 19 18 18 18 18 18 18 18 18 18 18 18 18 18 18
32 30 31 32 32 32 31 31 30 29 29 27 26 25 25 24 24 23 23 22 22 21 21 21 20 20 20 19 19 19 19 19 19 19 19 18 18 18 18 18 18 18 18 18 18 18 18 18 18
33 32 33 33 32 32 32 31 30 30 29 27 26 25 25 24 24 23 23 22 21 21 21 20 20 20 20 19 19 19 19 19 19 19 18 18 18 18 18 18 18 18 18 18 18 18 18 18 18
33 33 33 33 32 32 32 31 30 29 28 27 26 25 25 24 24 23 22 22 21 21 21 20 20 20 20 19 19 19 19 19 19 19 19 18 18 18 18 18 18 18 18 18 18 18 18 18 18
33 33 33 33 32 32 31 31 30 29 28 27 26 25 25 24 24 23 22 22 21 21 20 20 20 20 19 19 19 19 19 19 19 19 19 18 18 18 18 18 18 18 18 18 18 18 18 18 18
33 33 32 32 32 32 32 31 30 29 28 27 26 25 25 24 24 23 22 21 21 20 20 20 20 19 19 19 19 19 19 19 19 19 18 18 18 18 18 18 18 18 18 18 18 18 18 18 18
32 32 32 33 33 32 32 31 30 29 28 27 26 25 25 24 23 23 22 21 21 20 20 20 20 19 19 19 19 19 19 19 18 18 18 18 18 18 18 18 18 18 18 18 18 18 18 18 18
32 31 30 32 33 33 31 30 30 29 28 27 27 26 25 24 23 22 22 21 21 20 20 20 19 19 19 19 19 19 19 18 18 18 18 18 18 18 18 18 18 18 18 18 18 18 18 18 18
31 30 30 32 33 33 32 30 31 30 29 28 27 26 25 24 23 23 22 21 20 20 20 19 19 19 19 19 19 18 18 18 18 18 18 18 18 18 18 18 18 18 18 18 18 18 18 18 18
31 32 32 32 33 33 32 31 31 30 30 29 27 26 25 24 23 23 22 21 20 20 19 19 19 19 19 18 18 18 18 18 18 18 18 18 18 18 18 18 18 18 18 18 18 18 18 18 18
33 32 32 33 34 33 32 31 31 30 30 29 28 27 26 25 23 23 22 21 20 20 19 19 19 19 19 18 18 18 18 18 18 18 18 18 18 18 18 18 18 17 17 17 17 18 18 18 18
33 33 32 33 34 33 31 31 31 31 30 29 28 27 26 25 24 23 22 21 20 20 19 19 19 18 18 18 18 18 18 18 18 18 17 17 17 17 17 17 17 17 17 17 17 17 17 17 17
33 33 32 32 33 33 32 30 30 30 30 29 28 27 26 25 24 23 22 22 21 20 19 19 19 18 18 18 18 18 18 18 18 18 17 17 17 17 17 17 17 17 17 17 17 17 17 17 17
32 33 33 33 32 31 31 29 29 29 29 30 29 28 27 26 24 23 22 22 21 20 19 19 19 18 18 18 18 18 18 17 18 17 17 17 17 17 17 17 17 17 17 17 17 17 17 17 17
33 34 34 33 31 30 30 29 28 29 29 29 29 28 27 26 25 24 23 22 21 20 20 19 19 18 18 18 18 18 18 17 17 17 17 17 17 17 17 17 17 17 17 17 17 17 17 17 17
34 34 33 32 30 28 29 29 29 30 30 30 29 28 27 26 25 24 23 22 21 21 20 19 19 18 18 18 17 17 17 17 17 17 17 17 17 17 17 17 17 17 17 17 17 17 17 17 17
34 32 30 29 28 28 30 30 29 31 31 31 30 28 27 26 25 24 23 22 22 21 20 19 19 18 18 18 17 17 17 17 17 17 17 17 17 17 17 17 17 17 17 17 16 16 16 16 16
33 32 30 29 28 28 30 29 29 31 31 31 30 28 27 27 26 25 24 23 22 21 20 19 19 18 18 18 17 17 17 17 17 17 17 17 17 17 17 17 17 16 16 16 16 16 16 16 16
33 32 33 31 29 28 29 29 29 30 31 30 29 28 27 27 26 25 24 23 22 21 20 19 19 18 18 18 17 17 17 17 17 17 17 16 16 16 16 16 16 16 16 16 16 16 16 16 16
34 33 32 31 29 28 28 28 28 29 29 29 29 28 27 27 26 25 24 23 22 21 20 20 19 18 18 18 17 17 17 17 17 17 16 16 16 16 16 16 16 16 16 16 16 16 16 16 15
32 32 32 31 31 29 28 28 30 30 30 29 29 28 27 27 26 25 24 23 22 21 20 20 19 19 18 18 17 17 17 17 17 16 16 16 16 16 16 16 16 16 15 15 15 16 15 15 15
32 32 32 31 30 30 29 28 30 30 30 29 28 28 27 26 25 25 24 23 22 21 20 20 19 19 18 18 17 17 17 17 16 16 16 16 16 16 16 16 15 15 15 15 15 15 15 15 15
Wind_Speed
10 11 9 5 3 1 9 12 14 13 13 12 12 12 14 14 10 8 7 9 12 12 13 14 14 13 12 10 9 9 9 9 9 9 9 9 9 9 9 10 9 9 9 8 9 8 8 7 7
9 10 7 3 1 6 10 13 15 14 12 11 13 14 14 14 12 9 8 9 11 12 13 14 14 13 11 10 9 9 9 9 9 9 8 8 8 8 8 8 8 8 8 7 7 8 7 7 6
11 11 5 1 4 9 12 13 14 12 11 11 12 13 12 10 10 7 8 10 11 13 15 15 14 13 11 10 9 9 9 9 9 8 8 7 7 7 7 7 7 6 7 7 7 7 6 6 6
6 5 3 1 10 12 12 11 12 11 11 12 11 11 11 10 8 9 10 11 12 14 16 16 15 13 12 10 9 9 8 8 7 7 7 7 7 7 7 7 7 7 7 7 7 7 6 6 6
8 3 1 5 12 12 12 12 12 12 12 13 13 13 12 11 12 12 11 11 12 13 15 16 16 14 12 11 10 9 8 7 7 6 6 6 7 6 7 7 8 8 7 6 6 6 6 5 5
5 3 1 7 12 12 11 11 12 13 12 12 12 13 10 10 10 10 11 11 12 13 13 15 15 14 12 11 10 8 8 7 6 6 6 6 7 7 7 7 8 8 8 7 6 6 6 5 5
6 4 4 8 10 10 10 10 11 11 11 11 11 12 9 8 9 10 10 11 11 12 11 11 12 12 12 11 9 8 7 6 5 5 5 6 7 7 8 8 8 8 8 7 7 7 7 7 7
5 3 5 8 9 10 10 11 11 11 11 10 9 9 8 9 9 10 10 10 10 10 9 8 9 10 10 10 9 9 7 6 5 4 4 5 6 8 8 8 9 8 8 8 8 8 9 8 8
2 2 6 8 8 8 9 10 11 11 11 12 13 14 12 12 10 10 10 9 8 8 7 7 7 7 7 8 9 8 8 6 6 5 5 5 5 6 8 8 10 10 9 10 10 10 10 9 9
2 4 7 8 7 7 9 9 8 9 11 12 13 13 13 11 10 10 9 8 8 7 6 6 6 6 5 4 6 5 5 6 6 4 4 4 3 3 5 7 11 12 11 11 12 12 11 10 8
4 5 7 8 8 7 8 8 8 9 9 10 11 12 11 10 9 9 9 7 8 6 5 6 6 5 4 3 3 2 3 3 3 3 2 2 1 2 2 3 6 8 9 7 8 9 7 6 5
3 4 5 7 6 5 7 8 10 11 11 12 12 12 10 9 8 8 8 7 7 6 5 5 6 5 4 4 2 1 2 1 2 3 2 2 0 1 1 1 1 3 3 4 3 3 4 3 4
2 3 5 5 5 4 6 9 9 12 12 13 12 11 10 8 8 8 7 7 7 6 4 5 5 5 3 3 2 2 2 1 2 3 2 1 1 0 1 1 0 1 1 1 2 1 1 2 2
1 2 2 2 4 4 5 8 8 11 10 11 11 9 9 8 7 7 7 7 6 5 4 4 4 5 3 3 2 2 2 2 2 2 3 1 1 1 1 0 0 0 0 1 1 1 2 2 1
1 2 3 4 4 4 4 5 8 11 10 9 10 9 8 8 8 7 7 6 6 6 4 3 3 4 3 2 2 2 2 2 2 3 3 2 1 1 0 0 1 0 1 0 0 1 1 2 2
4 3 5 4 3 4 4 4 9 10 10 9 9 9 9 8 8 7 7 6 6 6 4 2 2 3 2 2 3 2 3 3 2 2 2 2 1 1 1 0 1 0 0 0 0 0 1 1 2
7 5 5 3 4 4 4 5 9 9 10 10 9 10 10 9 7 7 7 6 6 5 4 2 2 3 2 1 1 1 2 2 2 2 3 2 2 1 1 0 1 1 0 0 1 0 1 2 2
5 4 2 1 2 2 2 6 10 9 8 10 9 9 9 9 8 7 7 6 6 5 4 3 2 2 1 1 1 2 1 1 1 2 2 1 1 1 1 0 0 1 0 1 1 1 1 2 3
8 6 4 1 1 3 1 3 9 9 8 9 10 9 9 9 9 7 7 6 6 5 3 3 2 2 1 1 2 1 2 1 1 1 2 2 2 2 1 1 0 1 1 0 1 1 2 2 2
9 6 4 1 1 2 2 4 8 10 9 9 10 9 9 10 9 7 6 6 6 5 4 3 2 1 1 1 0 0 1 1 1 2 2 2 2 2 1 1 1 0 0 0 1 1 1 2 1
9 6 5 5 5 6 4 4 7 9 9 9 10 10 9 10 10 9 7 6 6 6 5 3 3 2 1 1 1 1 0 1 1 1 2 1 1 2 2 1 1 1 0 0 1 1 2 2 2
7 5 7 7 7 6 5 4 4 8 9 11 11 10 10 9 10 10 8 6 6 6 6 5 4 3 2 1 1 1 1 1 1 1 1 1 1 2 2 2 1 1 1 0 1 0 2 2 3
8 9 9 10 8 7 5 2 3 9 9 10 11 10 10 9 9 9 9 8 7 7 7 6 5 3 2 2 1 2 2 1 1 1 1 1 1 1 2 2 2 1 1 1 1 1 1 2 2
9 11 11 8 5 6 5 4 3 5 7 10 11 11 10 10 10 9 8 8 7 7 7 7 6 4 3 2 1 1 2 3 4 3 2 1 1 1 2 2 2 2 1 1 1 2 2 3 3
8 8 6 6 3 4 5 2 2 6 7 8 11 11 11 10 10 10 9 9 8 7 7 7 6 4 3 2 1 1 1 2 2 2 2 2 1 1 2 3 2 2 2 1 2 1 2 2 3
8 8 7 7 6 6 4 2 5 6 9 10 11 11 11 11 11 10 10 9 8 8 7 7 6 4 3 2 2 0 1 1 1 2 2 2 2 2 2 2 1 2 2 3 2 2 2 2 3
8 9 9 8 7 7 2 4 5 6 8 10 11 10 9 10 10 9 9 9 8 8 8 7 6 5 4 3 2 1 1 1 2 2 2 2 2 1 1 1 1 1 2 2 2 1 2 2 2
8 9 7 6 5 5 3 2 3 6 6 7 9 8 8 10 10 9 8 8 8 8 8 7 6 5 4 3 1 2 1 1 0 2 2 2 3 2 2 1 1 1 1 2 3 2 2 2 2
7 8 7 7 7 7 4 1 3 6 6 6 8 9 8 9 9 9 8 7 7 8 8 6 6 5 5 3 2 1 1 1 1 1 2 2 2 2 2 2 2 2 2 2 2 3 2 2 2
8 9 9 8 7 6 4 1 2 4 5 5 7 9 8 8 8 9 9 8 7 7 6 5 5 5 5 4 3 2 1 1 1 1 1 1 1 1 1 2 2 3 3 2 3 3 4 3 2
Wind_Direction
206 219 221 237 246 49 59 61 67 67 66 60 59 64 58 49 56 82 93 95 101 107 114 116 114 114 112 108 105 105 107 106 109 112 115 118 120 123 130 133 134 135 136 140 142 139 138 144 146
230 230 228 235 24 63 62 64 65 67 71 72 69 67 65 61 68 91 98 104 107 115 118 117 119 117 114 111 108 105 106 108 111 114 118 123 126 126 127 133 138 143 147 150 151 149 150 154 158
249 253 255 194 70 67 62 62 71 69 71 72 70 64 57 69 77 91 110 120 115 114 115 120 122 119 115 113 110 106 107 111 114 117 125 130 129 131 138 145 152 158 161 161 163 163 166 166 165
249 237 237 42 69 69 72 73 73 71 66 66 71 71 64 60 83 103 111 113 115 116 116 121 124 121 118 114 111 110 110 113 117 119 127 136 137 142 148 157 165 170 167 168 171 167 173 174 172
238 258 230 70 73 73 71 72 71 67 65 67 74 82 75 71 91 107 107 103 105 111 117 125 128 124 122 120 119 118 118 119 123 126 131 140 143 149 157 160 164 167 169 166 170 169 175 175 187
254 252 50 73 73 69 67 68 69 70 70 73 83 89 81 90 97 104 106 105 105 107 112 123 131 130 129 127 125 122 123 126 128 132 139 152 154 157 162 165 167 172 174 177 183 185 187 189 199
263 289 65 71 77 73 66 63 66 73 68 65 80 85 89 93 100 107 104 100 100 101 111 124 135 137 138 136 133 132 132 134 137 140 150 162 168 172 174 174 176 180 181 186 195 203 203 202 208
282 329 68 82 85 84 76 70 69 74 70 69 76 90 105 112 111 109 105 101 97 100 108 119 129 137 142 146 147 147 147 151 154 157 171 175 181 186 187 186 185 189 189 193 199 209 213 213 212
311 11 53 66 85 89 90 84 82 86 82 72 68 90 111 118 114 105 101 93 88 89 102 106 110 120 137 141 145 158 166 172 169 173 201 197 192 188 190 188 185 192 196 200 204 208 210 215 220
61 53 68 68 80 88 89 89 96 95 84 80 81 94 109 115 112 108 103 99 92 83 83 89 91 93 101 112 131 159 166 167 181 167 187 196 214 201 188 184 192 198 203 208 212 212 212 212 220
67 58 66 74 75 86 91 92 85 94 89 99 108 113 112 115 114 111 105 102 96 88 71 77 82 74 69 77 107 135 145 150 161 146 178 170 208 212 188 181 194 205 208 212 211 211 216 209 209
46 81 80 82 87 85 91 87 81 79 91 108 115 117 118 119 118 112 106 100 91 84 75 64 72 69 52 41 40 93 97 124 119 134 118 91 226 261 141 173 188 212 207 195 203 199 196 210 216
6 71 72 85 91 87 98 95 93 94 102 113 118 119 119 120 117 112 111 110 101 91 80 73 71 70 54 39 358 43 47 59 83 100 105 117 149 79 90 123 329 259 223 175 173 190 185 215 231
14 49 81 140 141 134 119 117 108 111 112 119 120 118 120 121 122 115 109 107 105 99 85 73 74 73 53 44 11 9 43 58 61 89 101 83 30 67 62 106 113 312 1 147 160 196 203 215 223
275 220 211 211 179 147 138 131 121 129 128 129 129 127 122 119 119 115 113 115 111 103 87 75 92 74 60 35 360 23 30 52 46 65 76 65 26 38 8 231 153 112 301 122 157 229 223 225 228
264 249 234 206 180 149 195 140 134 144 142 139 141 138 129 123 122 120 119 113 104 103 96 75 62 84 68 41 6 10 29 41 34 53 54 53 10 358 342 352 75 44 274 89 186 224 268 268 254
254 234 229 196 176 168 204 144 144 155 151 150 151 146 139 136 132 130 125 118 113 109 111 108 59 66 65 59 21 21 54 44 32 49 40 10 341 350 340 29 71 331 179 139 282 37 266 263 260
296 287 257 208 178 223 191 140 146 155 162 157 155 148 144 145 141 136 130 126 120 111 110 110 87 64 36 46 43 10 14 33 57 67 52 1 322 339 2 35 273 320 71 39 9 347 276 275 259
293 302 301 350 221 238 167 158 157 159 171 157 152 153 152 146 139 137 137 134 127 120 120 112 103 85 41 21 21 2 7 355 25 70 55 14 342 357 17 354 325 330 72 64 316 290 278 277 277
279 290 305 331 322 280 219 217 180 169 170 165 160 161 157 151 145 147 152 147 142 135 127 123 124 121 115 96 55 317 327 314 50 38 63 18 346 338 349 19 326 349 30 43 314 310 297 281 264
284 305 309 301 294 263 250 231 188 164 163 164 164 163 163 158 155 155 159 155 151 147 142 124 112 115 93 72 65 12 23 325 18 38 57 12 324 346 354 332 331 335 307 139 271 297 281 282 277
296 313 298 288 281 272 246 256 192 176 178 169 166 163 161 159 158 160 163 161 156 150 142 120 111 108 100 88 28 337 35 11 7 22 57 14 351 1 359 336 344 334 339 0 286 285 297 292 304
294 299 291 287 287 290 294 291 169 170 174 167 163 161 157 159 158 159 161 161 157 153 145 133 123 119 106 83 39 349 10 343 5 32 58 46 35 15 22 27 12 10 346 345 326 337 318 317 311
282 286 281 290 292 285 274 264 183 154 157 158 154 154 155 156 156 156 154 152 152 148 139 135 128 127 127 111 62 34 353 348 3 0 0 349 54 56 33 41 20 6 355 346 345 354 338 327 319
274 285 294 299 302 273 255 254 93 102 119 133 144 151 151 151 150 151 150 147 146 140 134 124 121 124 123 118 84 37 323 312 336 342 335 337 10 53 47 39 27 356 344 345 344 354 354 347 334
278 283 288 301 303 298 257 144 107 99 107 121 132 141 146 149 145 147 148 149 148 142 135 129 132 137 134 124 124 92 294 308 359 357 342 3 10 36 71 61 18 352 339 344 348 353 348 353 329
272 286 290 293 286 286 270 125 120 113 115 118 125 134 142 140 138 143 144 143 141 141 137 135 136 140 139 135 142 129 53 33 13 347 358 12 357 2 68 59 18 353 335 339 338 341 333 340 329
252 282 295 295 295 284 309 32 139 154 130 122 124 128 139 139 140 142 139 135 135 136 132 134 137 141 132 126 137 136 128 115 55 19 22 11 357 0 11 18 357 330 332 334 328 320 328 319 326
268 264 281 295 302 305 312 352 114 141 140 133 131 130 132 135 137 135 131 132 135 133 132 135 139 141 140 133 120 99 107 124 128 65 38 20 11 11 355 340 329 328 334 326 320 317 315 310 323
270 275 276 279 280 288 294 75 80 118 122 123 135 134 130 129 136 138 138 135 136 133 131 136 145 146 146 140 135 134 131 101 53 57 61 46 10 359 360 357 345 338 343 336 320 318 324 313 311
Height
1488 1488 1488 1492 1491 1489 1487 1478 1473 1475 1477 1480 1481 1482 1486 1489 1494 1504 1505 1503 1504 1503 1503 1503 1504 1505 1505 1506 1507 1507 1508 1509 1510 1511 1512 1514 1515 1517 1518 1520 1522 1524 1525 1527 1529 1530 1532 1533 1534
1487 1489 1492 1491 1490 1496 1490 1476 1476 1477 1480 1481 1483 1486 1488 1494 1498 1502 1504 1505 1505 1505 1505 1505 1506 1507 1507 1508 1508 1509 1509 1510 1511 1512 1513 1514 1516 1517 1519 1521 1522 1524 1526 1528 1529 1531 1532 1534 1535
1487 1490 1491 1486 1488 1491 1490 1479 1478 1479 1481 1482 1485 1489 1494 1498 1501 1503 1505 1506 1506 1506 1507 1507 1508 1508 1509 1509 1509 1510 1510 1511 1512 1513 1514 1515 1517 1518 1520 1521 1523 1525 1526 1528 1529 1531 1532 1534 1535
1489 1490 1488 1485 1485 1481 1480 1479 1479 1481 1483 1484 1487 1493 1499 1502 1503 1504 1506 1507 1508 1508 1508 1509 1509 1510 1510 1511 1511 1511 1512 1512 1513 1514 1515 1516 1517 1518 1520 1521 1523 1524 1526 1528 1529 1530 1532 1533 1535
1490 1488 1487 1486 1483 1479 1477 1479 1481 1482 1485 1487 1491 1497 1502 1505 1505 1506 1507 1508 1509 1510 1510 1510 1511 1511 1512 1512 1512 1513 1513 1514 1514 1514 1515 1516 1517 1519 1520 1522 1523 1524 1526 1528 1529 1531 1532 1533 1534
1489 1483 1490 1490 1485 1481 1480 1482 1483 1485 1488 1490 1493 1498 1505 1507 1507 1508 1509 1510 1511 1511 1511 1512 1512 1513 1513 1513 1514 1514 1514 1515 1515 1515 1516 1516 1518 1519 1521 1522 1523 1524 1526 1527 1529 1530 1532 1533 1534
1487 1483 1486 1488 1488 1486 1483 1484 1485 1488 1490 1492 1495 1500 1506 1509 1509 1509 1511 1512 1513 1513 1514 1514 1514 1514 1515 1515 1515 1515 1516 1516 1516 1517 1517 1517 1519 1520 1521 1522 1523 1524 1526 1527 1528 1530 1531 1532 1534
1483 1481 1484 1485 1489 1489 1485 1486 1488 1490 1493 1496 1497 1501 1507 1510 1510 1511 1512 1513 1514 1515 1515 1516 1516 1516 1516 1516 1517 1517 1517 1517 1518 1518 1518 1519 1519 1521 1522 1523 1524 1525 1526 1527 1528 1529 1531 1532 1533
1481 1484 1489 1485 1487 1487 1485 1487 1491 1493 1495 1498 1500 1503 1507 1510 1511 1512 1514 1515 1516 1517 1518 1518 1518 1518 1518 1518 1518 1518 1518 1518 1519 1519 1519 1520 1520 1521 1522 1523 1524 1525 1525 1526 1527 1528 1529 1531 1532
1480 1487 1485 1480 1481 1483 1485 1488 1490 1493 1497 1501 1504 1507 1509 1511 1512 1514 1515 1516 1517 1518 1519 1519 1519 1520 1520 1520 1520 1519 1519 1519 1520 1519 1520 1520 1521 1522 1522 1523 1524 1524 1525 1526 1527 1528 1528 1529 1531
1479 1482 1480 1480 1482 1484 1486 1489 1491 1493 1498 1502 1505 1508 1510 1512 1513 1515 1516 1518 1519 1520 1520 1520 1520 1520 1521 1521 1521 1521 1521 1520 1520 1520 1521 1521 1521 1522 1522 1523 1524 1524 1525 1525 1526 1526 1527 1528 1529
1479 1479 1480 1481 1484 1485 1487 1489 1493 1496 1500 1503 1506 1509 1511 1513 1514 1516 1517 1519 1520 1520 1521 1521 1521 1521 1521 1521 1522 1522 1521 1521 1521 1521 1521 1521 1521 1522 1522 1523 1524 1524 1525 1525 1525 1526 1527 1528 1529
1480 1480 1481 1483 1485 1486 1488 1491 1494 1498 1502 1505 1507 1510 1512 1513 1515 1516 1518 1519 1520 1521 1521 1522 1522 1521 1521 1521 1521 1522 1522 1522 1522 1521 1521 1522 1522 1522 1522 1523 1523 1524 1524 1524 1525 1526 1526 1527 1528
1482 1482 1483 1484 1485 1486 1488 1491 1494 1499 1503 1505 1508 1510 1512 1514 1515 1517 1518 1520 1521 1521 1522 1522 1522 1522 1521 1521 1521 1522 1522 1521 1522 1521 1521 1521 1522 1522 1522 1522 1522 1523 1523 1523 1524 1525 1525 1526 1526
1482 1483 1484 1482 1482 1484 1488 1492 1493 1498 1501 1505 1508 1511 1513 1515 1516 1518 1519 1520 1521 1522 1522 1522 1523 1522 1521 1521 1522 1522 1522 1522 1521 1521 1521 1521 1521 1521 1521 1521 1521 1522 1522 1523 1523 1523 1524 1525 1525
1483 1488 1491 1482 1480 1482 1489 1498 1493 1497 1499 1503 1507 1510 1513 1515 1517 1518 1519 1521 1521 1522 1522 1522 1523 1522 1522 1521 1521 1522 1522 1522 1521 1521 1521 1521 1521 1521 1521 1521 1521 1521 1522 1522 1522 1522 1523 1523 1524
1488 1493 1492 1483 1477 1478 1484 1492 1491 1495 1497 1501 1505 1508 1511 1514 1517 1518 1520 1521 1522 1522 1522 1522 1522 1522 1522 1521 1521 1522 1521 1521 1521 1521 1520 1520 1520 1520 1520 1520 1520 1521 1521 1522 1522 1521 1522 1522 1522
1492 1487 1485 1484 1476 1476 1481 1485 1487 1491 1494 1498 1502 1506 1510 1513 1516 1518 1520 1521 1521 1522 1522 1522 1522 1521 1521 1521 1521 1521 1521 1521 1521 1520 1519 1519 1519 1519 1519 1520 1520 1520 1521 1521 1521 1521 1521 1521 1521
1479 1481 1483 1478 1473 1476 1481 1484 1485 1488 1491 1495 1500 1505 1508 1512 1515 1517 1519 1520 1521 1521 1521 1521 1520 1520 1521 1521 1520 1520 1520 1520 1520 1519 1519 1518 1518 1519 1519 1519 1519 1520 1520 1520 1520 1520 1519 1520 1520
1478 1481 1482 1476 1472 1476 1481 1484 1480 1485 1489 1493 1498 1502 1506 1510 1514 1516 1518 1519 1520 1520 1520 1519 1519 1519 1520 1520 1520 1521 1521 1520 1520 1519 1518 1518 1518 1518 1518 1518 1518 1519 1519 1519 1519 1518 1518 1519 1519
1477 1479 1480 1480 1474 1473 1479 1486 1482 1483 1487 1492 1496 1500 1504 1508 1512 1515 1517 1518 1519 1519 1519 1519 1518 1518 1519 1520 1520 1521 1520 1520 1520 1519 1518 1518 1517 1517 1517 1517 1517 1518 1518 1518 1518 1517 1517 1518 1518
1481 1472 1472 1474 1481 1485 1483 1500 1488 1485 1487 1489 1493 1498 1502 1506 1509 1513 1515 1517 1518 1518 1519 1518 1518 1519 1519 1520 1520 1520 1520 1519 1519 1519 1518 1517 1517 1516 1517 1517 1517 1517 1517 1517 1517 1517 1517 1517 1517
1475 1468 1470 1472 1480 1487 1486 1498 1496 1484 1488 1488 1490 1495 1499 1504 1507 1511 1513 1515 1517 1518 1518 1518 1518 1519 1519 1519 1519 1520 1520 1519 1519 1519 1518 1517 1516 1516 1516 1516 1516 1516 1516 1516 1516 1516 1516 1516 1516
1468 1469 1470 1473 1483 1503 1490 1496 1497 1482 1482 1483 1487 1492 1497 1502 1506 1509 1512 1514 1516 1517 1518 1518 1518 1518 1519 1519 1519 1519 1519 1519 1519 1518 1517 1517 1516 1516 1516 1515 1515 1515 1515 1515 1515 1515 1515 1514 1514
1469 1480 1495 1501 1506 1508 1484 1490 1492 1475 1475 1479 1485 1491 1495 1500 1504 1508 1510 1513 1514 1516 1517 1518 1517 1518 1518 1518 1518 1518 1519 1518 1518 1518 1517 1517 1516 1516 1515 1515 1514 1514 1514 1514 1514 1514 1513 1513 1513
1472 1478 1499 1513 1515 1504 1486 1493 1487 1475 1476 1479 1484 1489 1494 1498 1503 1506 1509 1511 1513 1515 1516 1517 1517 1517 1518 1518 1518 1518 1518 1518 1517 1517 1517 1516 1516 1515 1514 1514 1514 1513 1513 1513 1513 1513 1512 1512 1512
1474 1476 1473 1486 1496 1505 1496 1490 1483 1477 1478 1481 1485 1489 1493 1497 1501 1505 1508 1510 1512 1514 1516 1516 1517 1517 1517 1517 1517 1517 1517 1517 1517 1516 1516 1516 1515 1515 1514 1513 1513 1513 1512 1512 1512 1511 1511 1511 1510
1467 1469 1475 1487 1505 1512 1502 1496 1494 1486 1483 1483 1485 1490 1493 1496 1500 1504 1507 1510 1512 1513 1515 1516 1516 1516 1517 1517 1517 1517 1516 1516 1516 1516 1515 1515 1514 1514 1513 1513 1512 1511 1511 1511 1511 1510 1510 1509 1509
1471 1473 1475 1479 1483 1499 1510 1505 1478 1480 1481 1483 1486 1490 1493 1496 1500 1503 1506 1508 1511 1513 1514 1515 1516 1516 1516 1516 1516 1516 1516 1516 1516 1515 1515 1514 1513 1513 1512 1511 1511 1510 1510 1510 1509 1508 1508 1508 1507
1469 1471 1474 1487 1489 1487 1497 1503 1476 1477 1480 1484 1487 1490 1494 1497 1500 1502 1505 1507 1510 1512 1513 1514 1515 1515 1515 1515 1515 1515 1515 1515 1515 1514 1514 1513 1512 1512 1511 1510 1509 1509 1509 1508 1508 1507 1507 1506 1505